Lexington Weather

Lexington, Massachusetts, USA

68°F
7/3/2020 12:45pm 
  • Lexington Conditions: Overcast
  • Temperature: 67.8°F / 19.9°CColder 0.9°F than last hour.
  • Dew Point: 63.9°FDecreased 0.9°Fsince last hour.
  • Relative Humidity: 87
  • Wind: Wind from NNE NNE 2 mph, 10-min avg: 1 mph, gust: 4 mph
  • Barometer: 29.86 in Steady
  • Visibility: 10 miles
  • Rain Today: 0.00 in
  •   

Regional Weather Roundup
for Boston / Norton, MA

        
000
ASUS41 KBOX 290504
RWRBOX

REGIONAL WEATHER ROUNDUP
NATIONAL WEATHER SERVICE BOSTON/NORTON MA
100 AM EDT MON JUN 29 2020

NOTE:  "FAIR" INDICATES FEW OR NO CLOUDS BELOW 12,000 FEET WITH NO 
SIGNIFICANT WEATHER AND/OR OBSTRUCTIONS TO VISIBILITY.

MAZALL-290600-
EASTERN MASSACHUSETTS
  
CITY           SKY/WX    TMP DP  RH WIND       PRES   REMARKS
BOSTON         CLOUDY    66  65  96 CALM      29.76S THUNDER          
BEVERLY        TSTM      67  66  97 CALM      29.75R                  
LAWRENCE       TSTM      67  66  97 SE6       29.77R FOG              
BEDFORD        TSTM      67  65  93 NE5       29.75F FOG              
BLUE HILL        N/A     63  62  97 CALM      29.76R                  
NORWOOD        CLOUDY    66  63  90 N3        29.75S                  
MARSHFIELD     CLOUDY    66  66 100 CALM      29.75R                  
PLYMOUTH       CLOUDY    68  65  90 CALM      29.76R                  
TAUNTON        CLOUDY    66  62  87 CALM      29.75S                  
NEW BEDFORD    CLOUDY    69  66  90 CALM      29.74S                  
$$

MAZALL-290600-
CAPE COD AND THE ISLANDS
  
CITY           SKY/WX    TMP DP  RH WIND       PRES   REMARKS
FALMOUTH       CLOUDY    68  68 100 CALM      29.76S                  
HYANNIS        CLOUDY    72  67  84 S5        29.75S                  
CHATHAM        MOCLDY    66  64  93 VRB3      29.77S                  
PROVINCETOWN   CLOUDY    69  68  96 S6        29.75F                  
NANTUCKET      CLOUDY    66  64  93 SE16      29.77R FOG              
MARTHAS VNYRD  CLOUDY    67  67 100 S10       29.74F FOG              
$$
 
MAZALL-290600-
CENTRAL AND WESTERN MASSACHUSETTS
  
CITY           SKY/WX    TMP DP  RH WIND       PRES   REMARKS
WORCESTER      MOCLDY    65  62  90 SW5       29.77F                  
FITCHBURG      CLOUDY    67  65  93 CALM      29.75F                  
ORANGE         MOCLDY    66  64  93 CALM      29.77S                  
SPRINGFIELD    PTCLDY    65  65 100 NW5       29.73F FOG              
WESTFIELD      CLOUDY    66  66 100 CALM      29.74F FOG              
NORTH ADAMS    CLOUDY    64  62  93 CALM      29.78S                  
PITTSFIELD     FOG       62  60  93 SW5       29.77F VSB 1            
$$
 
RIZALL-290600-
RHODE ISLAND
  
CITY           SKY/WX    TMP DP  RH WIND       PRES   REMARKS
PROVIDENCE     MOCLDY    68  66  93 CALM      29.74F                  
NEWPORT        MOCLDY    69  66  90 E5        29.74F FOG              
BLOCK ISLAND   LGT RAIN  69  68  96 MISG        N/A  FOG              
SMITHFIELD     MOCLDY    63  63 100 CALM      29.75F                  
WESTERLY       PTCLDY    71  66  84 S7        29.73F                  
$$
 
CTZALL-290600-
CONNECTICUT
  
CITY           SKY/WX    TMP DP  RH WIND       PRES   REMARKS
BRADLEY INTL   PTCLDY    67  65  93 CALM      29.73F                  
HARTFORD       PTCLDY    70  67  90 S3        29.73S                  
BRIDGEPORT     PTCLDY    71  68  90 W3        29.73F                  
DANBURY        PTCLDY    64  63  96 CALM      29.77S                  
GROTON         PTCLDY    69  66  90 CALM      29.72F                  
NEW HAVEN      PTCLDY    71  69  93 CALM      29.73F                  
CHESTER        NOT AVBL                                               
MERIDEN        MOCLDY    68  66  93 CALM      29.74S FOG              
WILLIMANTIC    CLOUDY    69  67  93 SE3       29.74F                  
OXFORD         FOG       64  64 100 CALM      29.77F VSB 1            
$$

MEZ002-015-021-024-NHZ003-005-008-011-012-014-VTZ005-008-290600-
NORTHERN NEW ENGLAND
  
CITY           SKY/WX    TMP DP  RH WIND       PRES   REMARKS
PORTLAND ME    CLOUDY    67  63  87 E14       29.78S FOG              
BANGOR ME      CLOUDY    65  61  87 S3        29.83S                  
CONCORD NH     CLOUDY    64  63  96 NW7       29.76R                  
MANCHESTER NH  CLOUDY    70  67  90 CALM      29.73S                  
NASHUA NH      CLOUDY    67  67 100 W3        29.75S                  
PORTSMOUTH NH  CLOUDY    67  66  94 CALM      29.73  FOG              
JAFFREY NH     LGT RAIN  65  62  90 CALM      29.77F                  
KEENE NH       CLOUDY    66  64  93 CALM      29.75F                  
BURLINGTON VT  MOCLDY    68  64  87 NW8       29.78R                  
MT. WASHINGTON LGT RAIN  48  48 100 S13         N/A  VSB 0            
$$

NYZ052-076-290600-
EASTERN NEW YORK
  
CITY           SKY/WX    TMP DP  RH WIND       PRES   REMARKS
ALBANY         PTCLDY    66  61  84 NW3       29.77R                  
NEW YORK CITY  CLEAR     75  66  73 NW6       29.74S                  
$$
 
ANZALL-290600-
MARINE OBSERVATIONS
  
STATION/POSITION TIME  TEMP    WIND        PRES    VSBY  WAVE
                       AIR SEA DIR/SP/G                  HT/PER
                 (UTC) (F)     (DEG/KT/KT) (MB)    (MI)  (FT/S)
BOSTON BUOY      0450   67 68  180/  6/  8 1006.4F         1/ 7
BUZZARDS BAY     0400          170/ 12/ 12 1008.3R
NANTUCKET SOUND  0440   68 70  180/ 14/ 17 1006.9R
MASS BAY-STELLWA 0404   66     210/  8/ 10 1005.5S  1 7/8  2/ 6
ISLE OF SHOALS   0400   65      10/  4/  4 1007.0F
S OF BLOCK IS    0426      70                N/A           3/ 6
$$

......................KEY.........................
  SKY/WX - SKY CONDITION/PRESENT WEATHER
  TMP    - TEMPERATURE IN FAHRENHEIT
  DWPT   - DEWPOINT IN FAHRENHEIT
  RH     - RELATIVE HUMIDITY IN PERCENT
  WIND   - DIRECTION AND SPEED IN MPH
  PRES   - MEAN SEA LEVEL PRESSURE IN INCHES OF HG
  WCI    - WIND CHILL INDEX
  VSB    - VISIBILITY IN MILES
  HX     - HEAT INDEX
  TC     - TEMPERATURE IN CELSIUS
  VRB    - VARIABLE WIND DIRECTION
  N/A    - NOT AVAILABLE
  
      

Other recent Regional Weather Roundups

Fri Jul 3, 12:04pm

Fri Jul 3, 11:04am

Fri Jul 3, 10:04am

Fri Jul 3, 9:04am

Fri Jul 3, 8:04am

Fri Jul 3, 7:04am

Fri Jul 3, 6:04am

Fri Jul 3, 5:04am

Fri Jul 3, 4:04am

Fri Jul 3, 3:04am

Fri Jul 3, 2:04am

Fri Jul 3, 1:04am

Fri Jul 3, 12:04am

Thu Jul 2, 11:05pm

Thu Jul 2, 10:04pm

Thu Jul 2, 9:04pm

Thu Jul 2, 8:04pm

Thu Jul 2, 7:05pm

Thu Jul 2, 6:04pm

Thu Jul 2, 5:05pm

Thu Jul 2, 4:04pm

Thu Jul 2, 3:04pm

Thu Jul 2, 2:04pm

Thu Jul 2, 1:05pm

Thu Jul 2, 12:04pm

Thu Jul 2, 11:04am

Thu Jul 2, 10:05am

Thu Jul 2, 9:05am

Thu Jul 2, 8:04am

Thu Jul 2, 7:04am

Thu Jul 2, 6:05am

Thu Jul 2, 5:04am

Thu Jul 2, 4:04am

Thu Jul 2, 3:04am

Thu Jul 2, 2:04am

Thu Jul 2, 1:04am

Thu Jul 2, 12:05am

Wed Jul 1, 11:05pm

Wed Jul 1, 10:04pm

Wed Jul 1, 9:04pm

Wed Jul 1, 8:04pm

Wed Jul 1, 7:04pm

Wed Jul 1, 6:04pm

Wed Jul 1, 5:05pm

Wed Jul 1, 4:04pm

Wed Jul 1, 3:04pm

Wed Jul 1, 2:04pm

Wed Jul 1, 1:04pm

Wed Jul 1, 12:04pm

Wed Jul 1, 11:04am

Wed Jul 1, 10:04am

Wed Jul 1, 9:04am

Wed Jul 1, 8:05am

Wed Jul 1, 7:04am

Wed Jul 1, 6:04am

Wed Jul 1, 5:04am

Wed Jul 1, 4:04am

Wed Jul 1, 3:04am

Wed Jul 1, 2:04am

Wed Jul 1, 1:04am

Wed Jul 1, 12:04am

Tue Jun 30, 11:04pm

Tue Jun 30, 10:05pm

Tue Jun 30, 9:04pm

Tue Jun 30, 8:05pm

Tue Jun 30, 7:05pm

Tue Jun 30, 6:04pm

Tue Jun 30, 5:04pm

Tue Jun 30, 4:04pm

Tue Jun 30, 3:04pm

Tue Jun 30, 2:04pm

Tue Jun 30, 1:04pm

Tue Jun 30, 12:04pm

Tue Jun 30, 11:04am

Tue Jun 30, 10:04am

Tue Jun 30, 9:04am

Tue Jun 30, 8:04am

Tue Jun 30, 7:04am

Tue Jun 30, 6:04am

Tue Jun 30, 5:04am

Tue Jun 30, 4:04am

Tue Jun 30, 3:04am

Tue Jun 30, 2:04am

Tue Jun 30, 1:04am

Tue Jun 30, 12:04am

Mon Jun 29, 11:04pm

Mon Jun 29, 10:05pm

Mon Jun 29, 9:04pm

Mon Jun 29, 8:05pm

Mon Jun 29, 7:04pm

Mon Jun 29, 6:04pm

Mon Jun 29, 5:04pm

Mon Jun 29, 4:05pm

Mon Jun 29, 3:04pm

Mon Jun 29, 2:04pm

Mon Jun 29, 1:04pm

Mon Jun 29, 12:04pm

Mon Jun 29, 11:04am

Mon Jun 29, 10:04am

Mon Jun 29, 9:04am

Mon Jun 29, 8:04am

Mon Jun 29, 7:04am

Mon Jun 29, 6:04am

Mon Jun 29, 5:04am

Mon Jun 29, 4:04am

Mon Jun 29, 3:04am

Mon Jun 29, 2:04am

Mon Jun 29, 12:04am

Sun Jun 28, 11:05pm

Sun Jun 28, 10:04pm

Sun Jun 28, 9:05pm

Sun Jun 28, 8:04pm

Sun Jun 28, 7:04pm

Sun Jun 28, 6:04pm

Sun Jun 28, 5:04pm

Sun Jun 28, 4:04pm

Sun Jun 28, 3:04pm

Sun Jun 28, 2:05pm

Sun Jun 28, 1:04pm

Sun Jun 28, 12:04pm

Sun Jun 28, 11:04am

Sun Jun 28, 10:04am

Sun Jun 28, 9:04am

Sun Jun 28, 8:04am

Sun Jun 28, 7:04am

Sun Jun 28, 6:04am

Sun Jun 28, 5:04am

Sun Jun 28, 4:04am

Sun Jun 28, 3:04am

Sun Jun 28, 2:05am

Sun Jun 28, 1:04am

Sun Jun 28, 12:05am

Sat Jun 27, 11:04pm

Sat Jun 27, 10:04pm

Sat Jun 27, 9:04pm

Sat Jun 27, 8:04pm

Sat Jun 27, 7:04pm

Sat Jun 27, 6:04pm

Sat Jun 27, 5:04pm

Sat Jun 27, 4:05pm

Sat Jun 27, 3:04pm

Sat Jun 27, 2:04pm

Sat Jun 27, 1:05pm

Sat Jun 27, 12:04pm

Sat Jun 27, 11:04am

Sat Jun 27, 10:04am

Sat Jun 27, 9:04am

Sat Jun 27, 8:04am

Sat Jun 27, 7:04am

Sat Jun 27, 6:04am

Sat Jun 27, 5:05am

Sat Jun 27, 4:04am

Sat Jun 27, 3:04am

Sat Jun 27, 2:04am

Sat Jun 27, 1:04am

Sat Jun 27, 12:04am

Fri Jun 26, 11:04pm

Fri Jun 26, 10:04pm

Fri Jun 26, 9:05pm

Fri Jun 26, 8:04pm

Fri Jun 26, 7:05pm

Fri Jun 26, 6:04pm

Fri Jun 26, 5:04pm

Fri Jun 26, 4:04pm

Fri Jun 26, 3:04pm

Fri Jun 26, 2:05pm

Fri Jun 26, 1:04pm

Meta data:

ID: 68f8f6bd-1308-4a9c-8c14-f5713e085307
Link: https://api.weather.gov/products/68f8f6bd-1308-4a9c-8c14-f5713e085307